Location: Gad�tanya
(48.0500°N, 20.8500°E)
Time: 11:52:30
(UTC+00:00)

ATLAS 2AS CENTAUR R/B - Pass Details

Date: 05 July 2020
Orbit: 930 x 1282 km, 63.7° (Epoch: 19 July)

Event Time Altitude Azimuth Distance (km) Brightness Sun altitude
Rises 20:42:27 0° 318° (NW) 4,204 7.5 -14.4°
Reaches altitude 10° 20:45:22 10° 322° (NW) 3,201 6.5 -14.6°
Maximum altitude 20:53:01 64° 43° (NE) 1,284 3.2 -15.2°
Enters shadow 20:58:54 16° 122° (ESE) 2,564 4.2 -15.6°
